Dewpoint
72 72 72 72 72 72 73 72 72 71 72 72 73 73 73 73 73 72 73 74 75 75 75 76 76 76 76 75 75 75 75 74 74 74 74 73 70 68 69 69 67 66
72 72 72 72 72 72 73 73 72 72 72 73 72 73 74 74 73 72 73 74 75 75 75 76 75 76 76 75 75 75 75 74 74 74 73 73 70 68 69 68 68 66
72 72 72 72 71 71 71 73 73 72 72 73 74 73 74 74 73 73 72 74 75 74 75 75 76 75 76 75 75 74 75 74 74 74 73 73 70 69 69 69 68 68
72 72 72 72 72 71 71 71 73 73 73 73 73 74 74 74 74 73 73 75 75 75 74 75 75 75 76 75 75 74 74 75 74 74 73 73 71 69 69 69 69 68
72 72 72 72 72 72 71 70 71 73 73 73 73 74 75 74 73 73 73 73 74 74 74 74 75 75 76 75 75 74 75 75 74 74 73 72 71 70 69 69 69 68
72 72 72 72 72 72 71 71 70 72 73 74 74 74 74 74 73 73 72 74 74 74 74 74 74 75 76 75 76 75 75 75 75 74 74 72 71 71 70 69 69 68
71 71 72 72 72 72 71 71 71 71 72 73 74 74 73 74 74 73 72 72 73 74 74 74 74 74 75 75 75 75 75 75 75 74 74 73 72 70 70 70 69 69
71 71 71 72 72 72 72 71 71 71 71 72 73 74 73 72 73 73 73 72 72 73 74 74 75 74 75 75 75 75 74 75 74 75 74 74 73 71 70 70 69 69
71 71 71 71 71 71 71 71 71 71 71 71 72 73 74 73 72 73 73 73 72 73 73 74 75 74 74 75 75 75 74 74 74 74 74 73 73 71 70 69 70 69
71 71 71 71 71 71 71 71 71 71 71 71 71 72 73 73 72 72 73 73 72 72 72 73 74 74 74 74 75 74 74 74 73 74 74 73 73 72 71 69 69 69
71 71 71 71 71 70 70 71 71 71 71 71 71 71 72 73 73 72 72 73 73 72 72 72 73 74 74 74 74 74 74 74 73 73 74 74 73 72 72 70 69 69
71 71 71 70 70 70 70 71 71 71 72 72 72 71 72 72 73 73 71 72 73 73 73 73 73 74 74 73 73 74 74 74 73 73 73 73 73 72 72 71 70 69
71 71 71 70 70 70 70 70 70 70 71 72 72 71 71 71 72 73 73 71 72 73 74 74 73 73 74 73 73 73 74 73 73 73 72 73 73 72 72 71 70 70
71 71 71 71 70 71 70 70 70 69 70 71 72 71 70 71 72 72 72 72 72 72 73 74 74 73 73 74 73 73 73 73 73 73 72 72 73 73 72 71 71 70
71 71 71 71 71 71 70 70 70 69 69 70 71 71 71 70 71 72 72 72 73 72 72 73 74 74 74 73 73 73 73 73 73 73 73 72 72 72 72 71 71 70
71 71 71 71 71 71 71 70 70 69 68 69 71 71 71 71 70 71 72 72 72 73 73 73 73 74 71 66 68 73 72 73 74 73 73 73 72 72 72 72 71 71
71 71 71 71 71 71 71 70 70 69 69 69 70 72 71 71 71 70 71 72 72 72 73 73 73 73 67 64 65 67 72 73 73 73 73 73 73 72 72 72 72 72
72 71 71 71 71 71 71 71 70 69 69 69 69 71 72 72 71 71 70 71 72 72 73 73 73 68 64 64 64 64 67 73 73 73 74 73 73 73 72 72 72 72
72 72 72 71 71 71 71 71 70 69 69 69 69 70 72 72 72 71 71 70 72 72 72 73 73 67 64 63 63 63 64 69 73 73 73 73 73 73 73 73 72 72
73 72 72 72 72 71 71 71 71 69 69 69 69 69 70 72 72 72 72 71 70 72 73 73 73 68 63 62 62 62 63 66 73 73 73 73 73 73 73 73 73 72
73 72 72 72 72 72 71 71 71 70 69 69 69 69 69 70 71 71 72 72 71 70 72 73 73 66 62 61 60 61 62 64 72 73 72 72 73 73 73 73 73 73
73 73 72 73 73 73 72 71 71 71 70 69 69 69 69 69 70 71 71 72 72 71 70 71 73 64 62 61 60 60 61 68 71 72 72 72 71 72 73 73 73 73
73 73 73 73 73 73 73 72 72 72 72 71 70 69 69 69 70 70 71 71 72 72 71 70 71 66 60 59 59 59 61 69 71 72 72 72 71 71 72 73 73 72
73 73 73 73 73 73 73 73 73 73 73 73 71 70 69 70 70 70 71 71 71 72 72 71 70 67 58 58 58 58 62 70 71 72 72 72 72 72 72 72 72 70
74 74 73 73 73 73 74 74 74 74 74 74 73 72 71 71 72 71 71 72 72 72 70 71 72 68 56 57 57 57 62 71 72 72 72 72 72 72 72 72 73 71
75 74 74 74 73 74 74 75 75 75 75 75 74 73 72 72 72 72 72 72 72 72 73 73 73 73 64 55 56 56 58 70 72 72 72 72 73 72 72 72 72 73